"Pseudo-MPEC" for TTT0005

Created 2024 Oct 8 16:22:27 UT using Find_Orb

Click here for an explanation of pseudo-MPECs

 
 Astrometry: 
     TTT0005*KB2024 09 30.86502 21 50 43.76 -13 44 09.2    ~A207       VNEOCPY64
     TTT0005 KB2024 09 30.87202 21 50 42.56 -13 44 25.1    ~A207 22.7 GVNEOCPY64
     TTT0005 KB2024 09 30.87919 21 50 41.35 -13 44 40.9    ~A207       VNEOCPY64

Station data:
(Y64) Transient Survey Telescope, Teide  (N28.298930 W16.510390)  Canary
   Islands (Spain).

Orbital elements:  TTT0005
   Perihelion 2024 Jul 13.75057 +/- 119 TT = 18:00:49 (JD 2460505.25057)
Epoch 2024 Oct  1.0 TT = JDT 2460584.5   Earth MOID: 0.1531   Ma: 0.0795
M  74.43655235 +/- 90               (J2000 ecliptic)             AutoNEOCP
n   0.93926923 +/- 0.629            Peri.   12.58408 +/- 60
a   1.03262503 +/- 0.461            Node   171.76884 +/- 7
e   0.9315741 +/- 0.218             Incl.  102.02416 +/- 54
P   1.049/383.269d         H 21.90  G  0.15   U 12.5  SR
q 0.07065821 +/- 0.589    Q 1.99459185 +/- 16.9
From 3 observations 2024 Sept. 30 (20.4 min); mean residual 0".09
Residuals in arcseconds: 
240930 Y64  .05+  .08+    240930 Y64  .09-  .16-    240930 Y64  .04+  .08+    

Ephemerides (geocentric):
Date (UTC) HH   RA             Dec           delta  r     elong  mag " sig PA
---- --------  ------------   ------------  ------ ------ -----  --- --------
2024 10 08 16  21 34 49.134   -17 23 58.65  .78919 1.5876 124.8 23.7 6882 132
2024 10 08 17  21 34 45.534   -17 24 50.92  .79010 1.5879 124.7 23.7 6943 132
2024 10 08 18  21 34 41.948   -17 25 43.03  .79102 1.5883 124.7 23.7 7004 132
2024 10 08 19  21 34 38.374   -17 26 34.99  .79194 1.5886 124.6 23.7 7066 132
2024 10 08 20  21 34 34.814   -17 27 26.80  .79285 1.5890 124.5 23.7 7129 132
2024 10 08 21  21 34 31.267   -17 28 18.45  .79377 1.5893 124.5 23.7 7193 132
2024 10 08 22  21 34 27.733   -17 29 09.95  .79469 1.5897 124.4 23.7 7257 132
2024 10 08 23  21 34 24.212   -17 30 01.29  .79561 1.5900 124.4 23.7 7321 132
2024 10 09 00  21 34 20.704   -17 30 52.49  .79652 1.5904 124.3 23.8 7387 132
2024 10 09 01  21 34 17.209   -17 31 43.53  .79744 1.5907 124.3 23.8 7453 132
2024 10 09 02  21 34 13.727   -17 32 34.43  .79836 1.5911 124.2 23.8 7520 133
2024 10 09 03  21 34 10.258   -17 33 25.17  .79928 1.5914 124.1 23.8 7588 133
2024 10 09 04  21 34 06.802   -17 34 15.76  .80020 1.5917 124.1 23.8 7657 133
2024 10 09 05  21 34 03.359   -17 35 06.21  .80112 1.5921 124.0 23.8 7727 133
2024 10 09 06  21 33 59.928   -17 35 56.50  .80204 1.5924 124.0 23.8 7797 133
2024 10 09 07  21 33 56.510   -17 36 46.65  .80296 1.5928 123.9 23.8 7868 133
2024 10 09 08  21 33 53.105   -17 37 36.65  .80388 1.5931 123.8 23.8 7941 133
2024 10 09 09  21 33 49.713   -17 38 26.50  .80480 1.5935 123.8 23.8 8014 133
2024 10 09 10  21 33 46.333   -17 39 16.20  .80572 1.5938 123.7 23.8 8088 133
2024 10 09 11  21 33 42.966   -17 40 05.76  .80664 1.5942 123.7 23.8 8163 133
2024 10 09 12  21 33 39.612   -17 40 55.18  .80756 1.5945 123.6 23.8 8239 133
2024 10 09 13  21 33 36.270   -17 41 44.44  .80848 1.5949 123.5 23.8 8317 133
2024 10 09 14  21 33 32.941   -17 42 33.57  .80940 1.5952 123.5 23.8 8395 133
2024 10 09 15  21 33 29.624   -17 43 22.54  .81032 1.5956 123.4 23.8 8475 133
2024 10 09 16  21 33 26.319   -17 44 11.38  .81124 1.5959 123.4 23.8 8555 134
2024 10 09 17  21 33 23.027   -17 45 00.07  .81217 1.5962 123.3 23.8 8637 134
2024 10 09 18  21 33 19.748   -17 45 48.61  .81309 1.5966 123.3 23.8 8720 134
2024 10 09 19  21 33 16.481   -17 46 37.02  .81401 1.5969 123.2 23.8 8805 134
2024 10 09 20  21 33 13.226   -17 47 25.28  .81493 1.5973 123.1 23.8 8891 134
2024 10 09 21  21 33 09.983   -17 48 13.40  .81585 1.5976 123.1 23.8 8978 134
2024 10 09 22  21 33 06.753   -17 49 01.38  .81678 1.5980 123.0 23.8 9066 134
2024 10 09 23  21 33 03.535   -17 49 49.22  .81770 1.5983 123.0 23.8 9156 134
2024 10 10 00  21 33 00.329   -17 50 36.92  .81862 1.5986 122.9 23.8 9248 134
2024 10 10 01  21 32 57.136   -17 51 24.48  .81955 1.5990 122.9 23.8 9341 134
2024 10 10 02  21 32 53.954   -17 52 11.89  .82047 1.5993 122.8 23.8 9435 134
2024 10 10 03  21 32 50.785   -17 52 59.17  .82139 1.5997 122.7 23.8 9531 134
2024 10 10 04  21 32 47.628   -17 53 46.32  .82232 1.6000 122.7 23.8 9629 134
2024 10 10 05  21 32 44.482   -17 54 33.32  .82324 1.6004 122.6 23.8 9729 134
2024 10 10 06  21 32 41.349   -17 55 20.18  .82416 1.6007 122.6 23.9 9830 134
2024 10 10 07  21 32 38.228   -17 56 06.91  .82509 1.6010 122.5 23.9 9934 135
2024 10 10 08  21 32 35.119   -17 56 53.50  .82601 1.6014 122.4 23.9 167' 135
2024 10 10 09  21 32 32.021   -17 57 39.96  .82694 1.6017 122.4 23.9 169' 135
2024 10 10 10  21 32 28.936   -17 58 26.28  .82786 1.6021 122.3 23.9 171' 135
2024 10 10 11  21 32 25.862   -17 59 12.46  .82879 1.6024 122.3 23.9 173' 135
2024 10 10 12  21 32 22.800   -17 59 58.51  .82971 1.6028 122.2 23.9 175' 135
2024 10 10 13  21 32 19.750   -18 00 44.42  .83064 1.6031 122.2 23.9 177' 135
2024 10 10 14  21 32 16.712   -18 01 30.20  .83156 1.6034 122.1 23.9 179' 135
2024 10 10 15  21 32 13.685   -18 02 15.85  .83249 1.6038 122.1 23.9 181' 135